Flag for Canada Weather past 2 weeks in Welland, Ontario, Canada

Now
70 °F

Mild.


Feels Like: 68 °F
Forecast: 65 / 80 °F
Wind: 7 mph from Southwest

Location: Port Colborne Airport

Current Time: Jul 7, 2015 at 5:54:17 AM

Latest Report: Jul 7, 2015 at 5:00 AM


Visibility: N/A

Pressure: 29.93 "Hg

Humidity: 89%

Dew point: 67 °F

Location of WellandLocation

Historic Weather in Welland — Graph

°F

Welland temperature yesterday

Maximum temperature yesterday: 79 °F (at 6:00 PM)
Minimum temperature yesterday: 67 °F (at 4:00 AM)
Average temperature yesterday: 71 °F

Past Weeks' High & Low Weather Summary

 TemperatureHumidityPressure
High79 °F (Jul 6, 6:00 PM)99% (Jun 28, 8:00 AM)30.16 "Hg (Jun 28, 8:00 AM)
Low54 °F (Jun 28, 8:00 AM)35% (Jul 3, 4:00 PM)29.66 "Hg (Jun 28, 6:00 AM)
Average65 °F75%29.95 "Hg
* Reported Jun 22 4:00 AM — Jul 7 4:00 AM, Welland, Weather by CustomWeather, © 2015

Note: Actual official high and low records may vary slightly from our data, if they occured in-between our weather recording intervals... More about our weather records

Advertising

Welland weather history for previous 24 hours

 ConditionsComfort  
Time TempWeatherWind HumidityBarometerVisibility
4:00 AM
Tue, Jul 7
71 °FMild.10 mph87%29.93 "HgN/A
3:00 AM70 °FMild.6 mph91%29.94 "HgN/A
2:00 AM71 °FMild.6 mph89%29.95 "HgN/A
1:00 AM71 °FMild.8 mph87%29.94 "HgN/A
12:00 AM72 °FMild.10 mph83%29.96 "HgN/A
11:00 PM
Mon, Jul 6
70 °FMild.7 mph89%29.98 "HgN/A
10:00 PM71 °FMild.7 mph87%29.98 "HgN/A
9:00 PM71 °FMild.6 mph88%29.98 "HgN/A
8:00 PM73 °FMild.13 mph80%29.99 "HgN/A
7:00 PM76 °FMild.8 mph73%29.99 "HgN/A
6:00 PM79 °FWarm.5 mph61%29.99 "HgN/A
5:00 PM75 °FMild.12 mph74%30.01 "HgN/A
4:00 PM76 °FMild.5 mph67%30.01 "HgN/A
3:00 PM74 °FMild.2 mph69%30.02 "HgN/A
2:00 PM73 °FMild.7 mph75%30.04 "HgN/A
1:00 PM73 °FMild.6 mph70%30.07 "HgN/A
12:00 PM72 °FMild.5 mph72%30.09 "HgN/A
11:00 AM70 °FMild.2 mph72%30.11 "HgN/A
10:00 AM67 °FMild.5 mph81%30.09 "HgN/A
9:00 AM69 °FMild.7 mph77%30.09 "HgN/A
8:00 AM68 °FMild.10 mph76%30.09 "HgN/A
7:00 AM68 °FMild.9 mph79%30.10 "HgN/A
6:00 AM67 °FMild.7 mph79%30.09 "HgN/A
5:00 AM68 °FMild.7 mph78%30.09 "HgN/A
Weather by CustomWeather, © 2015

See weather overviewHow to use our weather pages